Wetbulb
65.66 66.95 67.85 68.45 70.38 70.68 70.48 71.44 70.95 74.11 74.24 74.41 73.06 73.03 72.54 74.35 74.03 75.08 74.87 75.54 74.38 72.82 73.21 75.08 74.16 75.30 74.35 74.45 74.86 74.86 73.11 72.62 73.31 71.26 69.76 70.16 70.85 70.29 68.64 66.27 65.64 67.70 68.34
64.25 66.44 67.26 67.79 69.36 70.03 70.23 70.84 72.24 73.27 73.43 73.20 74.34 73.20 72.88 74.41 73.87 74.62 74.84 76.30 75.40 74.51 74.93 73.77 75.74 75.68 76.29 75.30 73.33 70.98 72.36 71.91 72.62 69.49 67.67 65.09 66.45 68.05 65.87 64.65 65.90 65.79 65.50
63.93 66.08 67.31 67.67 69.26 69.75 70.74 71.08 71.84 73.69 72.47 73.20 73.83 74.43 74.29 73.71 73.82 71.33 71.24 74.01 75.09 75.16 74.47 73.78 75.09 76.01 76.73 74.68 72.74 72.38 72.64 69.87 71.85 72.04 68.40 64.62 62.90 65.22 66.09 64.22 64.85 64.28 63.50
65.58 66.96 67.51 67.95 69.15 70.05 71.74 71.98 72.82 74.15 73.26 72.46 72.59 71.97 70.85 70.55 72.35 73.86 72.44 74.24 75.99 74.83 74.49 74.93 75.48 76.45 76.48 74.73 74.52 75.57 73.56 72.02 70.21 71.77 72.55 69.49 68.11 65.17 64.24 64.58 63.36 64.45 63.63
66.01 67.08 68.01 68.90 69.91 71.06 71.58 72.88 72.72 74.00 73.26 73.27 73.68 71.87 71.87 72.17 73.69 72.49 72.71 74.29 74.71 75.98 76.07 76.06 77.13 77.25 77.43 76.68 75.68 74.98 74.36 73.76 72.49 72.21 71.26 68.87 68.86 68.61 66.04 64.87 63.22 63.13 63.27
66.41 67.67 68.92 69.41 69.55 71.93 72.09 72.94 72.37 72.79 74.05 73.63 73.51 73.21 72.74 71.30 71.03 73.98 74.63 76.17 73.96 74.88 75.98 76.18 76.20 76.41 76.74 76.09 75.04 74.53 74.00 73.42 74.03 73.09 71.50 69.69 68.16 67.35 66.40 65.62 63.09 59.89 61.99
66.27 66.96 67.68 68.42 68.76 69.27 71.31 72.83 72.56 72.08 73.30 74.93 73.71 73.16 73.11 74.24 72.57 73.53 74.02 73.84 71.55 72.25 73.88 75.64 75.59 75.65 76.40 75.70 74.97 74.46 73.66 73.77 73.01 71.68 71.28 71.54 69.87 68.68 67.03 64.70 64.18 60.34 62.55
66.36 66.72 67.71 68.63 68.79 69.17 69.61 71.48 72.78 72.37 73.86 73.26 74.52 74.27 73.25 73.99 74.35 75.38 74.65 74.10 73.17 74.32 74.47 73.72 73.93 73.77 73.68 73.95 74.68 74.63 73.21 73.40 73.01 72.46 71.74 71.28 70.57 69.36 67.73 65.45 62.89 61.43 61.93
67.25 67.25 68.07 68.81 68.84 68.81 69.37 69.43 72.62 72.69 73.75 73.79 74.48 74.70 74.46 73.81 73.38 74.47 73.86 73.37 73.17 74.07 73.18 74.33 73.67 74.08 73.48 74.67 74.46 73.63 72.96 74.06 73.62 73.13 72.87 72.18 71.47 71.38 69.88 67.14 65.50 62.23 60.32
67.18 67.73 68.14 68.57 69.15 69.46 69.78 70.12 73.03 72.82 73.76 74.56 74.09 74.82 74.93 74.24 73.77 73.73 72.93 74.19 73.27 74.70 74.53 73.70 74.06 74.24 74.94 74.96 73.96 73.85 75.15 74.25 74.68 74.29 73.13 72.32 72.50 71.64 70.42 69.85 68.08 64.58 63.16
66.78 68.74 68.43 69.14 69.61 69.32 69.69 70.93 73.37 73.58 74.02 74.58 74.61 74.12 74.45 74.82 74.64 73.46 74.53 75.48 75.52 75.32 74.32 74.55 75.03 75.23 75.42 75.71 75.56 74.83 75.06 74.50 73.75 73.91 72.74 72.72 72.43 70.83 70.38 69.65 69.09 64.76 64.24
68.95 70.25 71.08 72.39 72.00 68.73 68.48 68.80 73.13 73.67 74.61 74.91 74.76 74.39 74.35 74.64 75.05 74.90 74.63 75.10 74.25 75.03 74.64 75.89 75.83 76.40 76.50 75.84 75.63 74.50 74.09 72.64 73.05 73.29 72.89 71.53 73.14 70.94 70.71 69.11 66.58 65.13 63.44
67.55 67.84 67.98 68.62 70.88 73.15 71.49 68.49 69.35 72.76 74.02 74.59 74.24 74.10 74.03 74.46 74.24 74.65 75.02 74.93 74.68 74.63 75.61 76.42 76.41 76.46 76.58 76.36 75.78 73.73 72.82 73.14 73.67 72.35 70.95 69.71 69.22 70.24 69.86 66.96 65.53 64.88 63.57
66.57 66.68 67.14 67.43 68.93 72.29 73.40 70.84 68.99 70.68 73.23 73.89 73.53 73.38 73.60 74.38 74.57 75.04 75.28 75.22 75.45 75.35 75.73 75.97 77.34 77.04 76.46 75.38 72.93 72.71 72.42 73.17 72.05 71.98 70.52 69.31 68.79 70.26 67.93 66.04 65.09 63.98 62.42
66.20 66.32 66.39 66.81 68.84 72.16 73.24 74.11 72.95 68.95 72.17 72.82 72.83 72.87 73.87 74.53 74.77 75.10 75.79 75.86 75.70 76.51 76.58 76.66 76.61 76.33 72.22 71.05 70.94 71.58 71.46 71.01 71.28 70.94 69.69 68.36 70.39 70.09 68.63 66.14 65.25 64.78 60.51
63.73 64.20 64.74 64.90 66.84 68.49 69.86 73.12 74.02 74.26 71.75 71.79 72.42 72.51 73.90 74.01 74.50 74.80 75.33 75.79 75.72 75.89 76.33 76.48 76.63 70.79 69.75 64.22 65.83 67.89 70.84 71.49 70.26 69.17 68.52 67.78 68.40 68.05 67.06 66.08 66.17 63.66 60.64
61.64 61.96 62.40 63.13 63.92 68.94 70.45 70.51 72.64 74.75 73.74 74.93 73.31 72.81 73.11 73.98 74.28 74.68 74.95 75.45 75.76 76.13 76.61 76.22 75.50 67.64 63.96 62.12 63.06 65.77 68.16 70.42 68.80 67.83 69.46 68.12 67.07 65.04 63.72 64.00 64.25 63.67 63.42
61.80 61.72 60.92 61.91 66.63 66.78 67.27 71.22 71.28 73.04 74.02 74.73 74.66 75.00 74.58 74.10 74.63 74.77 75.01 75.14 75.55 76.00 76.38 76.54 70.91 66.23 62.43 60.20 59.97 62.57 67.10 69.23 68.53 69.93 69.63 68.04 65.93 64.45 63.51 62.57 62.17 59.58 59.42
60.84 60.66 61.26 61.78 64.80 65.17 66.00 68.42 70.07 71.15 73.45 73.53 74.23 74.08 75.23 75.53 74.83 75.20 75.17 75.70 76.16 76.32 76.53 73.94 68.97 65.26 61.62 57.79 57.81 60.14 68.92 68.63 66.84 65.79 64.79 69.29 66.81 63.77 64.03 63.36 61.16 59.23 59.01
61.12 60.76 61.93 62.31 63.14 64.64 65.64 66.03 67.70 69.40 70.40 71.82 73.63 74.57 74.11 75.27 75.64 76.00 75.89 76.38 76.52 76.51 75.54 72.64 69.04 64.78 62.31 56.36 56.24 58.42 70.15 68.05 66.56 61.82 62.75 64.69 63.89 61.54 62.99 63.69 60.94 58.47 58.64
59.43 60.30 61.46 61.44 63.33 64.33 63.92 64.16 65.33 65.80 67.79 71.01 71.61 73.17 74.98 73.18 75.14 76.12 76.79 76.66 75.94 75.11 72.83 69.69 67.01 65.66 62.84 57.34 56.08 56.56 66.08 69.54 66.62 64.37 59.61 59.62 59.21 59.73 60.06 62.42 62.51 60.46 60.28
59.32 59.99 58.72 59.80 62.36 63.85 63.43 62.95 62.64 65.32 67.09 69.09 70.34 71.91 74.52 73.89 74.53 74.11 74.70 75.43 74.86 73.64 69.99 68.25 67.50 64.96 62.32 58.47 56.00 56.50 59.34 60.14 66.09 65.09 60.78 56.90 56.28 55.77 57.93 61.53 59.95 57.82 59.96
56.98 59.39 58.53 58.52 60.34 62.16 63.32 63.27 62.95 64.82 66.19 67.17 68.65 70.13 72.29 71.14 71.45 67.35 67.17 70.26 72.13 71.46 68.68 67.71 65.63 64.04 63.25 60.58 56.86 56.02 57.34 60.68 64.24 62.74 58.56 55.58 55.43 56.13 56.05 56.81 57.20 57.76 60.34
55.83 57.51 57.68 57.84 58.15 60.44 63.06 62.55 63.49 64.86 65.79 65.12 66.14 68.92 70.01 64.43 65.00 64.18 65.27 64.79 63.84 60.69 60.12 65.94 65.54 63.77 61.83 61.00 59.96 59.58 58.69 59.39 57.87 56.90 55.72 55.57 56.90 57.79 57.23 56.45 57.22 60.30 61.35
57.19 57.79 56.69 57.07 58.34 59.99 62.16 62.88 62.01 64.70 64.57 64.79 64.73 66.79 68.86 65.79 56.98 53.97 56.54 62.67 63.05 61.75 58.92 59.80 66.16 64.70 62.18 61.87 55.86 56.30 61.33 62.16 58.22 57.53 56.02 55.70 57.98 58.42 57.21 58.42 57.68 58.89 61.03
55.98 55.98 56.75 58.22 58.49 58.91 59.69 61.57 62.68 64.31 63.84 63.71 64.03 65.07 67.30 63.77 57.61 54.45 52.84 50.31 48.93 47.03 47.50 46.97 55.15 56.44 56.66 47.52 45.52 45.90 46.99 50.26 50.98 60.14 59.35 59.01 58.85 62.60 61.54 61.85 63.07 62.34 62.62
MSLP
1007.09 1007.52 1007.91 1008.64 1009.55 1010.22 1010.91 1011.42 1012.08 1012.47 1012.81 1013.07 1013.27 1013.27 1013.27 1012.97 1013.07 1012.74 1012.90 1012.84 1013.23 1013.11 1013.46 1013.74 1014.03 1013.68 1014.04 1013.82 1013.66 1013.58 1013.50 1013.36 1013.30 1013.53 1013.70 1013.66 1013.64 1013.59 1013.79 1014.20 1014.48 1014.44 1014.16
1006.68 1007.26 1007.79 1008.47 1009.26 1010.00 1010.56 1011.21 1011.70 1012.10 1012.52 1012.76 1012.88 1013.02 1013.09 1012.85 1012.68 1012.68 1012.65 1012.69 1012.90 1012.93 1012.89 1013.21 1013.47 1013.39 1013.50 1013.63 1013.56 1013.67 1013.66 1013.60 1013.48 1013.81 1014.13 1014.20 1014.23 1014.13 1014.04 1014.25 1014.54 1014.50 1014.36
1006.14 1006.82 1007.43 1008.17 1008.93 1009.68 1010.23 1010.79 1011.43 1011.78 1012.03 1012.30 1012.63 1012.71 1012.84 1012.70 1012.89 1012.85 1012.36 1012.34 1012.44 1012.39 1012.44 1012.41 1012.92 1013.11 1013.29 1013.55 1013.46 1013.55 1013.66 1014.03 1013.72 1013.50 1014.05 1014.32 1014.55 1014.47 1014.32 1014.38 1014.56 1014.43 1014.51
1004.92 1005.91 1006.69 1007.53 1008.24 1008.98 1009.62 1010.18 1010.78 1011.43 1011.75 1012.01 1012.48 1012.78 1012.77 1012.95 1012.72 1012.49 1012.17 1012.19 1012.02 1011.79 1012.01 1012.24 1012.40 1012.81 1013.00 1013.19 1013.36 1013.29 1013.42 1013.66 1013.77 1013.39 1013.43 1013.88 1013.99 1014.27 1014.39 1014.18 1014.12 1014.11 1014.31
1003.69 1004.71 1005.62 1006.35 1007.17 1008.18 1009.01 1009.64 1010.26 1010.85 1011.30 1011.70 1012.00 1012.50 1012.59 1012.53 1012.29 1012.39 1012.12 1012.10 1011.79 1011.38 1011.64 1011.72 1012.11 1012.39 1012.52 1012.70 1012.78 1012.82 1012.93 1013.00 1013.14 1013.27 1013.15 1013.35 1013.44 1013.78 1014.26 1013.86 1013.81 1014.07 1014.12
1002.79 1003.65 1004.48 1005.51 1006.38 1007.28 1008.17 1009.02 1009.75 1010.22 1010.62 1011.15 1011.56 1012.00 1012.26 1012.24 1012.22 1012.47 1012.28 1012.11 1011.85 1011.66 1011.56 1011.44 1011.81 1012.01 1012.28 1012.44 1012.49 1012.50 1012.60 1012.60 1012.63 1012.62 1012.74 1012.90 1013.22 1013.38 1013.56 1013.65 1013.75 1014.13 1014.26
1002.01 1003.03 1004.13 1005.07 1005.83 1006.61 1007.39 1008.26 1009.08 1009.67 1010.03 1010.56 1011.05 1011.44 1011.75 1011.92 1011.96 1012.17 1012.18 1012.10 1012.04 1011.59 1011.41 1011.56 1011.81 1011.97 1012.13 1012.18 1012.20 1012.19 1012.25 1012.24 1012.38 1012.39 1012.30 1012.22 1012.31 1012.65 1012.76 1013.23 1013.58 1014.02 1014.29
1001.23 1002.19 1003.19 1004.21 1005.09 1005.85 1006.57 1007.42 1008.40 1009.05 1009.57 1010.03 1010.35 1010.78 1011.21 1011.53 1011.70 1011.75 1011.75 1011.75 1011.68 1011.44 1011.45 1011.55 1011.73 1011.89 1011.96 1011.93 1011.91 1011.99 1011.97 1012.04 1012.18 1012.17 1012.02 1012.02 1011.86 1011.98 1011.99 1012.48 1013.20 1013.87 1014.12
1000.78 1001.65 1002.67 1003.58 1004.42 1005.17 1005.83 1006.58 1007.62 1008.33 1008.87 1009.28 1009.84 1010.25 1010.65 1011.07 1011.30 1011.42 1011.46 1011.37 1011.24 1011.34 1011.45 1011.50 1011.58 1011.63 1011.55 1011.72 1011.87 1011.92 1011.97 1011.94 1011.87 1011.81 1011.79 1011.73 1011.54 1011.33 1011.36 1011.86 1012.34 1012.95 1013.86
1000.92 1001.77 1002.53 1003.22 1003.84 1004.24 1004.85 1005.75 1006.72 1007.51 1008.09 1008.72 1009.18 1009.69 1010.04 1010.43 1010.73 1011.01 1011.18 1011.20 1011.06 1011.12 1011.30 1011.25 1011.17 1011.23 1011.42 1011.57 1011.62 1011.73 1011.74 1011.79 1011.64 1011.47 1011.44 1011.34 1011.25 1011.33 1011.48 1011.77 1012.10 1012.61 1013.06
1002.42 1002.79 1002.50 1002.44 1003.04 1003.57 1004.29 1005.07 1006.00 1006.90 1007.68 1008.17 1008.61 1009.16 1009.53 1009.88 1010.28 1010.63 1010.72 1010.79 1010.79 1010.84 1010.95 1011.01 1011.11 1011.20 1011.36 1011.46 1011.47 1011.44 1011.55 1011.71 1011.62 1011.37 1011.27 1011.18 1011.10 1011.56 1011.74 1011.90 1012.19 1012.51 1013.16
1003.41 1004.01 1004.50 1004.63 1004.79 1004.71 1004.24 1004.70 1005.42 1005.71 1006.07 1006.79 1007.56 1008.18 1008.73 1009.23 1009.72 1010.01 1010.22 1010.36 1010.39 1010.44 1010.61 1010.71 1010.81 1011.06 1011.06 1011.21 1011.33 1011.38 1011.51 1011.54 1011.61 1011.48 1011.39 1011.55 1011.40 1011.59 1011.80 1012.03 1012.29 1012.82 1013.39
1004.55 1004.89 1005.22 1005.67 1005.85 1005.77 1005.33 1004.38 1004.59 1004.96 1005.48 1006.07 1006.78 1007.43 1007.88 1008.50 1008.99 1009.32 1009.55 1009.82 1009.97 1010.10 1010.34 1010.52 1010.68 1010.81 1010.89 1010.90 1011.01 1011.30 1011.45 1011.51 1011.46 1011.55 1011.65 1011.70 1011.53 1011.50 1011.85 1012.31 1012.57 1013.03 1013.72
1005.29 1005.58 1005.91 1006.53 1006.32 1005.98 1005.64 1004.82 1004.27 1004.40 1005.14 1005.71 1006.22 1006.72 1007.06 1007.43 1007.95 1008.54 1009.00 1009.41 1009.65 1009.89 1010.07 1010.31 1010.51 1010.61 1010.73 1011.00 1011.38 1011.34 1011.45 1011.50 1011.50 1011.73 1011.80 1011.82 1011.77 1011.75 1012.07 1012.51 1012.89 1013.58 1014.02
1006.66 1006.93 1006.92 1006.87 1006.53 1006.46 1006.02 1005.26 1004.68 1004.62 1005.12 1005.64 1005.91 1006.06 1006.37 1006.63 1007.19 1007.79 1008.33 1008.79 1009.23 1009.52 1009.71 1010.05 1010.27 1010.52 1011.01 1011.27 1011.54 1011.71 1011.76 1011.69 1011.89 1011.96 1012.04 1012.06 1011.99 1012.03 1012.19 1012.50 1013.16 1013.62 1014.09
1007.79 1007.76 1007.65 1007.41 1007.02 1006.76 1006.69 1006.20 1005.87 1005.14 1004.91 1005.60 1005.78 1005.93 1006.21 1006.41 1006.66 1007.06 1007.68 1008.26 1008.57 1008.84 1009.17 1009.49 1010.03 1010.78 1011.25 1011.56 1011.80 1011.74 1011.91 1012.04 1012.08 1012.27 1012.25 1012.32 1012.42 1012.50 1012.63 1012.91 1013.22 1013.45 1013.82
1008.43 1008.35 1008.37 1008.16 1007.69 1007.41 1007.18 1007.00 1006.57 1006.01 1005.61 1005.44 1005.75 1006.14 1006.30 1006.25 1006.46 1006.67 1007.12 1007.54 1008.03 1008.54 1008.93 1009.37 1009.77 1010.86 1011.41 1011.65 1011.68 1011.71 1011.89 1011.95 1012.15 1012.17 1012.20 1012.37 1012.77 1012.85 1013.08 1013.32 1013.54 1013.74 1013.89
1008.81 1008.93 1008.72 1008.44 1008.25 1007.93 1007.72 1007.32 1006.94 1006.46 1006.22 1006.06 1005.98 1005.63 1005.88 1006.14 1006.20 1006.43 1006.68 1006.95 1007.41 1007.75 1007.87 1008.44 1009.10 1009.97 1010.49 1010.86 1011.21 1011.37 1011.75 1011.68 1011.70 1012.16 1012.16 1012.42 1012.89 1013.15 1013.38 1013.67 1014.01 1014.19 1014.05
1008.77 1008.73 1008.72 1008.81 1008.78 1008.58 1008.34 1008.08 1007.66 1007.34 1006.98 1006.90 1006.66 1006.54 1006.04 1005.73 1005.97 1006.13 1006.18 1006.14 1006.34 1006.86 1007.65 1008.48 1009.43 1010.28 1010.91 1010.60 1010.37 1011.07 1011.73 1012.05 1011.94 1012.09 1012.52 1012.53 1012.86 1013.26 1013.58 1013.90 1014.24 1014.48 1014.20
1008.81 1008.92 1008.85 1008.95 1009.08 1009.01 1008.83 1008.88 1008.75 1008.42 1008.08 1007.66 1007.27 1006.83 1006.24 1005.65 1005.34 1005.13 1005.21 1005.39 1006.00 1006.87 1007.47 1008.37 1009.09 1009.90 1010.34 1010.46 1011.30 1011.42 1011.41 1011.92 1012.33 1012.49 1012.55 1012.80 1012.87 1013.16 1013.41 1013.84 1014.19 1014.37 1014.45
1009.01 1009.07 1009.15 1009.32 1009.29 1009.18 1009.17 1009.44 1009.27 1009.06 1008.59 1008.03 1007.60 1006.98 1006.24 1005.61 1004.97 1004.59 1004.71 1005.23 1005.75 1006.11 1007.16 1008.06 1008.87 1009.38 1010.29 1011.07 1011.21 1011.33 1011.04 1011.35 1011.88 1012.43 1013.01 1013.12 1013.09 1013.16 1013.30 1013.52 1013.86 1013.93 1014.12
1009.64 1009.38 1009.42 1009.47 1009.37 1009.28 1009.27 1009.40 1009.32 1008.89 1008.58 1008.24 1007.68 1007.10 1006.35 1005.68 1005.05 1004.58 1004.79 1005.45 1005.75 1006.23 1006.60 1007.46 1008.92 1009.94 1009.39 1010.65 1011.20 1011.31 1010.71 1011.11 1011.47 1012.06 1012.77 1013.03 1013.07 1012.95 1013.12 1013.29 1013.74 1013.89 1014.03
1009.85 1009.78 1009.76 1009.56 1009.26 1009.18 1009.16 1009.21 1008.87 1008.59 1008.36 1008.15 1007.77 1007.22 1006.53 1006.20 1005.82 1005.59 1005.89 1006.16 1006.43 1005.79 1001.35 1005.70 1009.02 1010.06 1010.17 1010.64 1011.16 1011.43 1011.36 1010.89 1011.57 1011.73 1012.60 1012.99 1013.25 1012.86 1013.00 1013.15 1013.62 1014.02 1014.24
1009.85 1009.58 1009.47 1009.41 1009.28 1008.97 1008.79 1008.55 1008.34 1008.22 1008.10 1007.99 1007.67 1007.25 1006.83 1006.82 1006.82 1006.73 1006.57 1006.46 1007.46 1006.81 1005.68 1007.28 1010.06 1011.13 1011.79 1012.00 1011.60 1011.79 1012.15 1011.85 1012.24 1011.73 1012.57 1013.28 1013.54 1013.05 1013.02 1013.36 1013.73 1014.22 1014.33
1010.22 1009.83 1009.54 1009.16 1008.96 1008.63 1008.36 1008.09 1007.80 1007.72 1007.68 1007.59 1007.44 1007.19 1006.96 1006.88 1007.43 1007.46 1007.33 1006.98 1006.60 1005.97 1009.91 1009.95 1011.05 1011.76 1011.99 1012.95 1012.08 1012.37 1012.62 1012.48 1013.11 1012.48 1013.09 1013.55 1013.93 1013.51 1013.24 1013.57 1013.87 1014.11 1014.19
1010.08 1009.70 1009.33 1008.94 1008.48 1008.17 1007.82 1007.59 1007.23 1007.21 1007.14 1007.16 1007.18 1007.06 1006.96 1007.18 1007.59 1007.99 1007.96 1008.05 1007.65 1008.51 1007.60 1008.10 1009.21 1010.94 1010.48 1011.48 1012.14 1012.72 1012.49 1012.64 1013.45 1013.16 1013.07 1013.68 1013.83 1013.73 1013.21 1013.54 1013.85 1013.99 1014.02
Wind_Speed
10 13 14 13 13 11 10 9 10 9 7 3 3 4 2 3 2 4 6 6 6 4 6 6 5 5 6 5 2 1 2 3 2 3 3 3 3 5 4 4 3 2 2
9 12 10 15 15 12 9 8 7 8 5 4 3 3 3 1 3 4 6 5 5 7 4 5 3 2 2 2 2 1 2 3 1 1 1 2 3 1 2 2 1 3 3
12 14 13 16 15 15 13 11 9 8 6 6 2 2 1 2 1 3 3 3 6 5 7 6 6 3 2 2 2 2 1 2 3 2 3 3 3 2 1 2 2 4 2
15 15 16 15 17 16 15 14 11 9 8 8 4 4 4 4 3 4 4 5 8 7 6 7 5 4 2 3 4 4 3 3 3 2 3 3 4 3 4 2 2 3 2
19 20 20 18 17 18 15 15 14 12 9 8 7 5 4 4 3 1 4 6 7 7 6 5 5 5 3 3 2 2 2 2 3 3 2 2 1 2 3 6 1 1 1
20 20 21 18 16 17 17 16 16 14 13 12 9 8 7 6 3 2 2 3 3 4 5 5 4 4 3 2 1 3 3 4 3 2 3 3 2 3 3 4 1 1 1
20 19 20 18 16 16 18 16 17 16 14 12 11 9 8 6 6 4 3 3 3 2 4 4 3 2 2 2 2 2 4 4 2 3 3 2 3 2 2 3 2 2 1
19 19 21 19 18 15 16 18 17 15 14 14 12 11 8 5 4 4 4 4 1 2 2 3 3 3 3 2 1 1 3 3 3 5 5 3 4 1 4 4 4 2 1
19 17 19 18 17 14 16 14 18 16 15 14 10 11 9 8 6 7 5 4 4 3 5 5 5 3 1 1 1 2 4 2 2 3 4 3 3 2 2 3 3 4 3
15 13 16 17 16 15 14 12 18 17 15 12 11 8 9 8 7 5 7 6 6 4 3 4 3 1 2 1 2 2 3 4 4 3 4 4 2 3 3 3 3 2 3
19 13 5 16 18 15 14 12 16 15 12 12 11 9 8 8 7 7 6 6 5 5 4 3 4 3 3 4 2 2 4 3 5 4 3 5 2 4 3 3 3 3 4
15 16 16 14 13 4 11 13 15 17 18 17 14 13 9 8 8 8 8 7 7 5 6 5 5 5 5 4 3 2 3 3 4 4 6 6 3 4 4 3 4 4 4
14 13 13 11 8 9 8 11 14 17 15 15 14 13 12 12 11 9 8 7 7 7 6 6 6 6 6 5 2 4 2 3 3 4 6 4 5 3 5 4 4 5 3
14 12 12 7 7 7 7 6 10 12 13 13 14 14 14 14 13 10 9 9 7 7 7 6 6 7 4 5 3 3 2 3 2 6 5 5 4 4 6 5 5 6 5
14 12 10 9 9 13 14 10 5 5 9 12 13 15 14 14 12 11 10 9 7 7 6 6 5 2 5 2 3 2 1 2 5 5 5 5 6 8 7 6 7 7 4
11 10 11 13 12 11 12 13 14 6 6 9 11 11 10 11 13 12 11 8 8 8 7 7 7 7 4 6 4 2 2 5 5 5 4 5 6 5 7 10 11 7 6
8 8 8 8 11 10 11 11 11 12 1 7 8 7 7 10 12 11 10 10 9 7 7 7 6 7 5 8 7 4 2 5 5 4 5 6 4 6 7 11 11 8 6
7 6 7 8 8 9 12 11 11 12 12 8 4 6 8 10 7 9 11 11 9 9 10 8 11 10 7 11 8 5 4 5 7 5 4 7 6 5 7 7 6 5 3
6 5 6 6 7 9 8 13 13 13 12 12 11 11 7 8 8 9 11 11 11 10 9 8 10 8 5 8 9 5 4 4 5 6 3 6 7 7 8 7 6 5 0
5 5 5 5 8 7 8 9 9 11 11 12 12 12 11 8 8 11 12 11 9 8 8 9 8 7 7 7 4 2 4 5 4 4 4 7 8 8 6 7 6 6 3
7 7 7 5 4 5 6 7 7 8 10 11 11 12 12 8 9 9 8 9 9 9 9 11 8 8 6 5 4 3 4 6 5 5 3 3 8 8 7 7 6 6 6
8 6 5 5 5 5 4 5 7 7 7 10 10 12 11 9 9 10 9 11 8 12 12 13 8 4 7 8 3 5 6 4 6 6 4 4 8 10 8 6 9 11 7
6 5 5 6 6 6 5 5 7 7 7 7 9 10 10 8 7 9 8 5 5 10 13 12 6 5 3 3 3 3 3 6 5 5 6 9 7 9 7 8 8 8 4
6 4 6 7 7 7 8 7 7 7 6 6 7 9 10 4 5 4 1 3 3 6 19 10 3 2 2 1 0 2 3 7 5 10 6 5 5 4 6 5 4 3 3
7 7 7 7 8 7 8 8 7 7 5 5 6 7 8 1 6 4 4 1 8 17 10 5 3 4 3 4 2 1 2 2 3 6 4 2 2 3 3 3 3 3 5
7 7 9 10 8 8 8 8 8 7 6 5 4 4 7 3 5 5 5 15 16 16 16 19 10 2 11 13 8 6 3 7 6 2 4 3 2 3 4 4 3 3 3
Wind_Direction
165 167 165 151 150 153 150 166 153 180 172 183 195 249 255 240 193 136 197 202 231 204 167 198 223 201 202 199 178 265 7 322 350 41 360 342 121 132 111 106 113 59 49
176 169 159 151 155 160 162 161 170 157 167 164 213 189 209 213 185 185 205 187 240 236 167 170 198 144 117 276 285 85 340 358 335 142 176 321 320 347 156 102 57 10 10
175 167 162 163 161 168 169 170 175 173 177 190 213 262 218 351 126 253 300 220 223 175 199 184 196 191 153 185 259 23 52 253 300 205 160 334 251 305 172 204 284 316 23
169 168 173 165 172 175 174 175 174 170 189 203 200 230 197 203 220 219 219 236 209 222 200 200 201 194 184 179 214 176 167 152 278 314 224 210 191 202 301 253 244 287 343
175 174 176 177 171 173 176 178 179 177 182 193 200 204 234 226 243 297 211 204 217 222 222 203 193 187 187 251 276 3 316 231 212 218 288 315 261 189 207 287 287 47 317
180 175 176 176 177 170 178 179 182 189 183 192 206 204 224 235 255 321 327 250 264 254 232 215 186 184 202 220 244 274 282 273 250 262 272 227 230 264 206 237 288 176 327
176 170 172 179 179 176 180 178 184 192 194 183 196 205 216 233 232 216 245 263 230 301 230 187 186 169 179 228 257 301 298 295 281 278 276 269 287 192 168 147 188 177 128
173 169 175 174 180 179 176 183 183 192 192 196 192 196 202 218 212 228 226 245 196 94 129 168 157 174 214 248 343 313 305 335 358 342 309 293 285 172 182 162 145 160 141
169 167 168 171 177 178 181 174 181 192 192 194 192 192 194 202 214 218 234 251 268 205 212 164 160 188 71 301 42 308 314 359 309 299 300 298 290 337 142 136 155 145 140
149 153 163 170 179 183 180 164 175 185 190 188 194 191 190 195 207 212 228 238 243 259 175 165 133 86 285 255 246 288 289 315 294 278 311 319 296 74 108 140 150 103 137
46 39 160 173 178 178 176 162 173 178 181 187 187 193 191 191 197 212 229 227 219 212 219 204 186 210 254 259 223 275 307 13 343 341 337 344 13 107 123 121 104 131 77
66 54 44 32 27 331 171 173 179 181 183 186 185 191 185 187 197 206 217 223 231 232 217 212 207 227 233 235 214 295 63 0 350 352 42 41 43 129 127 108 130 105 96
63 61 48 34 19 354 325 196 186 191 188 182 186 189 188 191 202 205 210 214 221 222 226 216 215 223 231 228 188 119 53 337 36 68 79 51 41 96 149 115 114 106 98
44 40 45 44 7 354 333 309 213 185 186 185 187 191 194 195 198 202 206 215 215 211 209 215 215 223 219 115 106 86 48 56 46 86 77 50 50 121 130 135 129 108 112
43 32 21 9 9 15 358 358 345 198 184 192 193 200 197 195 193 195 202 204 203 211 197 204 212 200 126 96 101 83 9 60 78 87 89 66 53 119 138 142 127 127 114
43 26 20 7 4 22 17 4 1 347 156 198 209 202 196 193 196 195 195 193 201 195 193 197 202 139 124 118 118 94 12 97 93 106 95 82 71 105 122 114 109 132 132
55 28 12 359 356 15 7 7 354 0 335 175 202 207 215 200 199 198 192 195 198 182 193 188 177 129 131 155 137 106 267 129 121 99 133 99 93 93 102 107 115 98 91
59 33 7 1 14 14 6 350 359 3 1 352 294 203 194 211 196 194 200 204 191 193 198 188 149 148 153 153 136 142 233 163 123 117 133 129 136 130 126 120 115 94 102
53 46 20 13 13 11 3 359 354 355 2 4 354 346 277 199 196 200 203 204 197 194 193 154 145 146 164 153 136 142 195 145 125 110 111 143 135 139 148 135 133 126 102
37 35 28 22 26 3 9 2 353 348 352 344 342 335 326 269 204 202 206 203 198 186 153 144 147 154 141 107 77 223 159 147 136 102 85 113 135 130 127 149 153 136 181
21 16 15 10 5 3 16 354 342 332 328 323 331 320 311 306 259 222 207 197 187 147 149 129 133 134 135 110 106 203 193 168 154 142 152 146 138 140 147 165 168 169 161
346 6 3 337 320 328 344 312 311 293 313 320 322 321 316 314 294 254 253 233 211 171 152 133 129 137 125 137 139 103 115 119 151 148 158 164 155 151 139 158 170 156 150
326 321 312 304 308 307 292 279 279 298 302 318 318 319 314 330 356 68 49 332 317 307 156 126 137 140 124 145 182 122 95 89 114 125 149 156 161 140 129 142 161 162 163
280 271 292 287 282 283 276 259 277 279 281 306 311 313 310 8 50 71 34 178 83 33 340 9 69 39 3 329 261 91 72 89 90 108 124 170 178 186 134 116 139 182 202
311 308 285 271 270 275 276 269 275 273 269 279 298 306 307 320 85 44 330 162 165 137 160 276 285 166 157 229 189 176 175 122 172 116 106 135 210 153 142 134 168 219 250
282 293 292 284 272 271 271 266 273 266 258 252 280 284 304 123 121 107 64 53 104 86 106 122 146 186 150 137 130 114 111 136 163 147 145 178 155 162 127 119 113 78 45